EW3511 Weather Reports


time (UTC)temp
C
wind
direction
speed
KPH
gust
KPH
rain 1hr
cm
rain 24hr
cm
rain mn
cm
humidity
%
barometer
mb
20260502183057 18 0.0 0.0 0.00 0.00 0.00 43 1016.5
20260502182058 19 0.0 0.0 0.00 0.00 0.00 41 1016.4
20260502181057 20 0.0 0.0 0.00 0.00 0.00 41 1016.4
20260502170120 23 55 3.2 9.7 0.00 0.00 0.00 31 1016.3
20260502164101 24 106 1.6 4.8 0.00 0.00 0.00 30 1016.5
20260502163102 24 98 1.6 4.8 0.00 0.00 0.00 30 1016.6
20260502162103 24 94 1.6 3.2 0.00 0.00 0.00 29 1016.9
20260502161102 24 92 1.6 4.8 0.00 0.00 0.00 29 1016.9
20260502160104 24 83 1.6 3.2 0.00 0.00 0.00 28 1017.0
20260502152032 25 71 3.2 11.3 0.00 0.00 0.00 26 1017.4
20260502151032 25 134 1.6 8.0 0.00 0.00 0.00 26 1017.5
20260502123040 24 56 3.2 8.0 0.00 0.00 0.00 35 1019.6
20260502122040 23 119 3.2 12.9 0.00 0.00 0.00 36 1019.8
20260502121040 23 82 3.2 9.7 0.00 0.00 0.00 37 1019.9
20260502115101 23 36 3.2 8.0 0.00 0.00 0.00 37 1020.2
20260502114041 23 45 3.2 9.7 0.00 0.00 0.00 38 1020.3
20260502113042 23 26 3.2 9.7 0.00 0.00 0.00 38 1020.5
20260502112043 22 116 1.6 8.0 0.00 0.00 0.00 39 1020.5
20260502111043 22 48 3.2 8.0 0.00 0.00 0.00 42 1020.6
20260502110103 22 3 3.2 8.0 0.00 0.00 0.00 41 1020.8
20260502105044 22 64 3.2 4.8 0.00 0.00 0.00 41 1020.8
20260502104044 22 79 3.2 8.0 0.00 0.00 0.00 41 1021.0
20260502103045 21 114 3.2 8.0 0.00 0.00 0.00 42 1021.2
20260502102045 21 62 3.2 4.8 0.00 0.00 0.00 43 1021.2
20260502101106 21 23 3.2 4.8 0.00 0.00 0.00 43 1021.4
20260502091047 20 109 1.6 8.0 0.00 0.00 0.00 44 1022.0
20260502071053 13 152 3.2 9.7 0.00 0.00 0.00 60 1022.6
20260502070054 12 140 3.2 8.0 0.00 0.00 0.00 63 1022.5
20260502065055 11 135 3.2 9.7 0.00 0.00 0.00 63 1022.6
20260502064114 11 123 1.6 4.8 0.00 0.00 0.00 65 1022.5
20260502063054 10 139 4.8 11.3 0.00 0.00 0.00 67 1022.5
20260502062115 11 129 3.2 9.7 0.00 0.00 0.00 67 1022.4
20260502061056 10 133 1.6 4.8 0.00 0.00 0.00 67 1022.4
20260502060056 10 116 1.6 8.0 0.00 0.00 0.00 68 1022.4
20260502055056 10 118 1.6 4.8 0.00 0.00 0.00 69 1022.4
20260502054056 9 129 1.6 4.8 0.00 0.00 0.00 71 1022.3
20260502053057 8 111 1.6 3.2 0.00 0.00 0.00 71 1022.5
20260502052058 8 114 1.6 3.2 0.00 0.00 0.00 73 1022.5
20260502051118 7 115 1.6 3.2 0.00 0.00 0.00 77 1022.5
20260502050058 7 112 0.0 1.6 0.00 0.00 0.00 76 1022.4
20260502045058 6 0.0 0.0 0.00 0.00 0.00 80 1022.3
20260502044059 5 89 0.0 1.6 0.00 0.00 0.00 85 1022.4
20260502043119 3 0.0 0.0 0.00 0.00 0.00 89 1022.4
20260502042100 3 0.0 0.0 0.00 0.00 0.00 89 1022.4
20260502041100 4 0.0 0.0 0.00 0.00 0.00 88 1022.3
20260502040032 4 89 0.0 1.6 0.00 0.00 0.00 87 1022.2
20260502035032 5 121 0.0 1.6 0.00 0.00 0.00 85 1022.4
20260502034053 5 88 0.0 3.2 0.00 0.00 0.00 83 1022.4
20260502033033 6 111 1.6 1.6 0.00 0.00 0.00 82 1022.4
20260502032054 6 119 0.0 1.6 0.00 0.00 0.00 81 1022.3
20260502031034 6 107 0.0 1.6 0.00 0.00 0.00 82 1022.4
20260502030055 6 130 1.6 3.2 0.00 0.00 0.00 81 1022.5
20260502025056 5 115 0.0 1.6 0.00 0.00 0.00 84 1022.5
20260502024058 3 87 0.0 1.6 0.00 0.00 0.00 89 1022.5
20260502023038 3 91 0.0 1.6 0.00 0.00 0.00 89 1022.6
20260502022037 3 0.0 0.0 0.00 0.00 0.00 89 1022.8
20260502021037 3 74 0.0 1.6 0.00 0.00 0.00 87 1022.7
20260502020058 3 0.0 0.0 0.00 0.00 0.00 88 1022.8
20260502015038 3 0.0 0.0 0.00 0.00 0.00 87 1022.8
20260502014038 4 0.0 0.0 0.00 0.00 0.00 85 1022.8
20260502013039 5 0.0 0.0 0.00 0.00 0.00 82 1022.8
20260502012039 6 0.0 0.0 0.00 0.00 0.00 81 1022.9
20260502011100 6 0.0 0.0 0.00 0.00 0.00 81 1023.1
20260502010040 6 0.0 0.0 0.00 0.00 0.00 81 1023.1
20260502005040 6 66 0.0 1.6 0.00 0.00 0.00 80 1023.2
20260502004041 5 86 0.0 1.6 0.00 0.00 0.00 81 1023.3
20260502003041 5 76 0.0 1.6 0.00 0.00 0.00 81 1023.4
20260502002042 5 85 0.0 1.6 0.00 0.00 0.00 83 1023.3
20260502001042 5 0.0 0.0 0.00 0.00 0.00 82 1023.4
20260501235043 5 0.0 1.6 0.00 0.00 0.00 81 1023.5
20260501234044 5 63 1.6 3.2 0.00 0.00 0.00 81 1023.5
20260501233044 6 0.0 0.0 0.00 0.00 0.00 79 1023.7
20260501232104 6 0.0 1.6 0.00 0.00 0.00 77 1023.6
20260501231044 9 185 1.6 4.8 0.00 0.00 0.00 68 1023.6
20260501230105 8 65 1.6 3.2 0.00 0.00 0.00 71 1023.6
20260501225045 7 0.0 0.0 0.00 0.00 0.00 73 1023.7
20260501224059 8 0.0 0.0 0.00 0.00 0.00 70 1023.8
20260501223046 9 0.0 0.0 0.00 0.00 0.00 65 1023.8
20260501222047 9 87 0.0 1.6 0.00 0.00 0.00 66 1023.9
20260501221049 10 90 0.0 1.6 0.00 0.00 0.00 64 1024.0
20260501220048 10 91 0.0 1.6 0.00 0.00 0.00 64 1023.9
20260501215048 10 86 0.0 1.6 0.00 0.00 0.00 64 1023.9
20260501214048 10 0.0 0.0 0.00 0.00 0.00 64 1023.9
20260501213048 10 83 0.0 1.6 0.00 0.00 0.00 64 1023.9
20260501212050 11 79 1.6 3.2 0.00 0.00 0.00 61 1024.1
20260501211150 10 83 1.6 1.6 0.00 0.00 0.00 61 1024.1
20260501210110 10 89 0.0 1.6 0.00 0.00 0.00 62 1024.2
20260501205051 11 89 0.0 3.2 0.00 0.00 0.00 58 1024.3
20260501204051 12 82 0.0 1.6 0.00 0.00 0.00 57 1024.2
20260501203111 11 85 0.0 3.2 0.00 0.00 0.00 57 1024.2
20260501202112 12 0.0 0.0 0.00 0.00 0.00 57 1024.2
20260501201052 13 88 1.6 3.2 0.00 0.00 0.00 53 1024.0
20260501200053 12 76 1.6 3.2 0.00 0.00 0.00 54 1024.0
20260501195104 13 74 1.6 4.8 0.00 0.00 0.00 54 1024.0
20260501194054 13 63 1.6 4.8 0.00 0.00 0.00 53 1024.0
20260501193054 13 70 3.2 8.0 0.00 0.00 0.00 53 1023.9
20260501192054 13 71 1.6 4.8 0.00 0.00 0.00 53 1023.9
20260501191054 13 61 1.6 3.2 0.00 0.00 0.00 52 1024.0
20260501190115 14 84 1.6 3.2 0.00 0.00 0.00 50 1023.9
20260501185113 13 75 1.6 3.2 0.00 0.00 0.00 51 1023.9
20260501184056 14 79 0.0 4.8 0.00 0.00 0.00 52 1024.0